Flag for France Weather past 2 weeks in Bastia, Corsica, France

Now
73 °F

Passing clouds.


Feels Like: 76 °F
Forecast: 56 / 69 °F
Wind: 7 mph from East

Location: Bastia Airport

Current Time: May 29, 2015 at 5:11:09 PM

Latest Report: May 29, 2015 at 4:30 PM


Visibility: N/A

Pressure: 30.01 "Hg

Humidity: 61%

Dew point: 59 °F

Location of BastiaLocation

Historic Weather in Bastia — Graph

°F

Bastia temperature yesterday

Maximum temperature yesterday: 73 °F (at 1:30 PM)
Minimum temperature yesterday: 54 °F (at 5:30 AM)
Average temperature yesterday: 65 °F

Past Weeks' High & Low Weather Summary

 TemperatureHumidityPressure
High81 °F (May 17, 3:30 PM)100% (May 24, 1:30 AM)30.09 "Hg (May 24, 1:30 AM)
Low52 °F (May 16, 4:00 AM)30% (May 20, 10:30 PM)29.65 "Hg (May 15, 7:30 AM)
Average65 °F67%29.90 "Hg
* Reported May 14 3:00 PM — May 29 3:30 PM, Bastia, Weather by CustomWeather, © 2015

Note: Actual official high and low records may vary slightly from our data, if they occured in-between our weather recording intervals... More about our weather records

Advertising

Bastia weather history for previous 24 hours

 ConditionsComfort  
Time TempWeatherWind HumidityBarometerVisibility
3:30 PM
Fri, May 29
73 °FPassing clouds.8 mph61%30.01 "HgN/A
3:00 PM73 °FPassing clouds.8 mph61%30.01 "HgN/A
2:30 PM73 °FPassing clouds.8 mph61%30.01 "HgN/A
2:00 PM73 °FPassing clouds.9 mph61%30.01 "HgN/A
1:30 PM73 °FPassing clouds.8 mph61%30.04 "HgN/A
1:00 PM73 °FPassing clouds.8 mph61%30.04 "HgN/A
12:30 PM73 °FPassing clouds.7 mph61%30.04 "HgN/A
12:00 PM72 °FPassing clouds.5 mph57%30.04 "HgN/A
11:30 AM72 °FPassing clouds.7 mph65%30.04 "HgN/A
11:14 AM72 °FPassing clouds.7 mph65%30.04 "HgN/A
10:30 AM72 °FPassing clouds.7 mph61%30.04 "HgN/A
10:00 AM72 °FPassing clouds.3 mph65%30.04 "HgN/A
9:30 AM70 °FPassing clouds.1 mph64%30.04 "HgN/A
9:06 AM68 °FPassing clouds.3 mph69%30.04 "HgN/A
8:30 AM66 °FPassing clouds.5 mph68%30.04 "HgN/A
8:00 AM64 °FPassing clouds.6 mph68%30.04 "HgN/A
7:30 AM61 °FScattered clouds.6 mph77%30.04 "HgN/A
7:00 AM59 °FScattered clouds.5 mph82%30.04 "HgN/A
6:30 AM55 °FPassing clouds.5 mph88%30.01 "HgN/A
6:00 AM54 °FPassing clouds.5 mph94%30.01 "HgN/A
5:30 AM54 °FPassing clouds.5 mph94%30.01 "HgN/A
5:00 AM54 °FClear.5 mph94%30.01 "Hg10 mi
4:30 AM54 °FClear.5 mph94%30.01 "Hg10 mi
4:00 AM55 °FClear.5 mph88%30.01 "Hg10 mi
3:30 AM54 °FClear.5 mph94%30.04 "Hg10 mi
3:00 AM55 °FClear.5 mph88%30.04 "Hg10 mi
2:30 AM55 °FClear.6 mph88%30.04 "Hg10 mi
1:30 AM55 °FClear.5 mph88%30.04 "Hg10 mi
12:08 AM57 °FClear.2 mph82%30.04 "Hg10 mi
11:00 PM
Thu, May 28
57 °FClear.3 mph82%30.04 "Hg10 mi
10:30 PM59 °FClear.2 mph82%30.04 "Hg10 mi
10:00 PM59 °FClear.No wind82%30.04 "Hg10 mi
9:30 PM63 °FSunny.No wind73%30.04 "Hg10 mi
9:00 PM64 °FSunny.No wind68%30.04 "Hg10 mi
8:30 PM66 °FSunny.3 mph64%30.04 "Hg10 mi
8:00 PM70 °FPassing clouds.3 mph57%30.04 "HgN/A
7:30 PM72 °FPassing clouds.6 mph53%30.04 "HgN/A
7:00 PM72 °FPassing clouds.7 mph47%30.04 "HgN/A
6:30 PM73 °FPassing clouds.7 mph47%30.04 "HgN/A
6:00 PM73 °FPassing clouds.8 mph44%30.04 "HgN/A
5:30 PM73 °FPassing clouds.8 mph47%30.04 "HgN/A
5:00 PM73 °FPassing clouds.8 mph44%30.04 "HgN/A
Weather by CustomWeather, © 2015

See weather overviewHow to use our weather pages